THORAD DELTA 1 DEB

Satellite information

Favourite Embed

Satellite Type and Status

DEBRISIN ORBIT

Key statistics

Satellite THORAD DELTA 1 DEB at a glance.

Uptime

18657

Days in orbit

Revolutions

≈ 12.5

Per day

Orbit

SSO

Sun Synchronous Orbit

Inclination

101.5

Latest

Satellite identification and parameters

Extended collection of information and parameters for THORAD DELTA 1 DEB.

Object identification

Identified? True

Debris? True

Object name: THORAD DELTA 1 DEB

International designator: 1974-089EE

Object number (NORAD): 9987

Object ID (CCSDS): 9987

Country: UNITED STATES OF AMERICA (US)

Current information (Y/N): Y

RCS size: SMALL

Orbital parameters

Period: 115.02 minutes

Inclination: 101.4655 deg

SMA: 7834.441 km

Apoapsis: 1531.456 km

Periapsis: 1381.155 km

RAAN: 124.1474 deg

Eccentricy: 0.00959237

Argument of periapsis: 109.1879 deg

Mean anomaly: 266.7623 deg

Mean motion: 12.51960944 rev/day

Mean motion (dot): 0.00000826 rev/day2

B* drag term: 0.0054697831 1/REarth

Two-line elements (TLE)

Creation date: Dec. 14, 2025, 3:07 a.m.

Reference frame: TEME

Reference center: EARTH

Epoch: Dec. 13, 2025, 4 p.m. UTC

TLE line 0: 0 THORAD DELTA 1 DEB

TLE line 1: 1 09987U 74089EE 25347.66716995 .00000826 00000-0 54698-2 0 9991

TLE line 2: 2 09987 101.4655 124.1474 0095924 109.1879 266.7623 12.51960944326132

Live tracking on map

Real-time ground track for satellite THORAD DELTA 1 DEB.

In-orbit conjunctions

A list of the most updated potential collisions computed for object THORAD DELTA 1 DEB.

Target Orbit TCA Probability of collision Miss distance Type
COSMOS 1040 LEO 2025-11-01 00:12:16 0.0003217487 81.0 (m) PAYLOAD
COSMOS 976 LEO 2024-11-06 16:22:54 0.0001748828 880.0 (m) PAYLOAD
COSMOS 566 LEO 2024-07-15 05:29:36 0.001568301 33.0 (m) PAYLOAD

Associated space launch

Meteorological satellite using radiometric imaging

THORAD DELTA 1 DEB was lifted into orbit during the mission ‘Delta 2310 | NOAA 4’, on board a Delta 2310 space rocket.

The launch took place on Nov. 15, 1974, 5:11 p.m. from Space Launch Complex 2W.

For more information about the launch, click the button.

Launch to space Delta 2310 | NOAA 4
Delta 2310 | NOAA 4

Agency: N/A

Status: Launch Successful

Launch date: Nov. 15, 1974, 5:11 p.m. UTC

Rocket: Delta 2310

Launch pad: Space Launch Complex 2W

Location: Vandenberg SFB, CA, USA

...

Latest news about this satellite

There are no fresh news available about this satellite. Check back as we update our databases every day.


Newsletter sign-up

Weekly statistics, charts and insights to help you stay on top of the space industry.